{"data":{"norad_id":60063,"intl_designator":"2024-113E","name":"STARLINK-11165 [DTC]","alt_names":[],"object_type":"PAYLOAD","status":"ACTIVE","operator":null,"country":"US","launch_date":"2024-06-19","launch_site_code":"AFWTR","launch_vehicle":null,"mission":null,"orbit_class":"UNKNOWN","rcs_meters":null,"size_class":null,"mass_kg":null,"dimensions":null,"purposes":["comms"],"wikipedia_slug":null,"has_3d_model":false,"image_url":null,"decayed_at":null,"tle_current":{"epoch":"2026-09-21T14:34:47.713152Z","epoch_age_seconds":81718,"freshness":"FRESH","line1":"1 60063U 24113E   26264.60749668 -.00000407  00000+0  14952-5 0  9999","line2":"2 60063  53.1583 305.3099 0001119  84.9582 275.1564 15.69707238130337","mean_motion":15.69707238,"eccentricity":0.0001119,"inclination_deg":53.1583,"raan_deg":305.3099,"arg_perigee_deg":84.9582,"mean_anomaly_deg":275.1564,"bstar":1.4952e-6,"rev_number":13033,"period_min":91.736851633222,"perigee_km":358.98068638003,"apogee_km":360.48862205624,"semimajor_km":6737.8716542181,"source":"CELESTRAK","updated_at":"2026-09-22T09:00:49.146981Z"}}}